When you browse on this site, cookies collect data to enhance your experience and personalize the content and advertising you see.
Visit our Privacy Policy to learn more. By continuing to use the site, you agree to this use of cookies and data.
  • In Schweiz
  • Länderverzeichnis
  • Für 7 Tage
  • Wassertemperatur
  • Satellitenkarten
  • Wetterkarte
  • Widgets
  • user-avatar
    Anmelden

    Stündliche Wetter Sirykiv

    Heute, 18 November, Sonntag

    Zeit Temperatur Niederschläge Wind Luftdruck Luftfeuchtigkeit
    00:00 -2°C° 0 mm 1 m/S 760 mmHg 49%
    01:00 -2°C° 0 mm 1 m/S 759 mmHg 49%
    02:00 -2°C° 0 mm 1 m/S 759 mmHg 49%
    03:00 -2°C° 0 mm 1 m/S 758 mmHg 50%
    04:00 -3°C° 0 mm 1 m/S 758 mmHg 51%
    05:00 -3°C° 0 mm 1 m/S 757 mmHg 52%
    06:00 -3°C° 0 mm 1 m/S 757 mmHg 54%
    07:00 -3°C° 0 mm 1 m/S 756 mmHg 55%
    08:00 -5°C° 0 mm 2 m/S 756 mmHg 57%
    09:00 -4°C° 0 mm 2 m/S 756 mmHg 55%
    10:00 -1°C° 0 mm 1 m/S 755 mmHg 52%
    11:00 0°C° 0 mm 1 m/S 755 mmHg 49%
    12:00 0°C° 0 mm 1 m/S 755 mmHg 50%
    13:00 +1°C° 0 mm 1 m/S 754 mmHg 51%
    14:00 +1°C° 0 mm 1 m/S 754 mmHg 52%
    15:00 0°C° 0 mm 1 m/S 754 mmHg 56%
    16:00 -1°C° 0 mm 1 m/S 754 mmHg 61%
    17:00 -2°C° 0 mm 1 m/S 754 mmHg 66%
    18:00 -2°C° 0 mm 1 m/S 754 mmHg 66%
    19:00 -4°C° 0 mm 0 m/S 754 mmHg 67%
    20:00 -4°C° 0 mm 0 m/S 754 mmHg 67%
    21:00 -4°C° 0 mm 0 m/S 754 mmHg 66%
    22:00 -3°C° 0 mm 1 m/S 754 mmHg 65%
    23:00 -3°C° 0 mm 1 m/S 754 mmHg 64%

    Morgen, 19 November, Montag

    Zeit Temperatur Niederschläge Wind Luftdruck Luftfeuchtigkeit
    00:00 -2°C° 0 mm 1 m/S 754 mmHg 63%
    01:00 -2°C° 0 mm 1 m/S 754 mmHg 61%
    02:00 -2°C° 0 mm 1 m/S 754 mmHg 60%
    03:00 -4°C° 0 mm 2 m/S 754 mmHg 60%
    04:00 -5°C° 0 mm 2 m/S 754 mmHg 60%
    05:00 -5°C° 0 mm 2 m/S 754 mmHg 59%
    06:00 -5°C° 0 mm 2 m/S 754 mmHg 59%
    07:00 -5°C° 0 mm 2 m/S 754 mmHg 58%
    08:00 -4°C° 0 mm 2 m/S 755 mmHg 57%
    09:00 -4°C° 0 mm 3 m/S 755 mmHg 54%
    10:00 -2°C° 0 mm 3 m/S 755 mmHg 51%
    11:00 -1°C° 0 mm 3 m/S 755 mmHg 48%
    12:00 -2°C° 0 mm 4 m/S 755 mmHg 48%
    13:00 -1°C° 0 mm 4 m/S 755 mmHg 47%
    14:00 -1°C° 0 mm 4 m/S 754 mmHg 47%
    15:00 -2°C° 0 mm 4 m/S 754 mmHg 48%
    16:00 -2°C° 0 mm 4 m/S 754 mmHg 50%
    17:00 -3°C° 0 mm 4 m/S 754 mmHg 51%
    18:00 -3°C° 0 mm 4 m/S 754 mmHg 51%
    19:00 -3°C° 0 mm 4 m/S 754 mmHg 50%
    20:00 -4°C° 0 mm 5 m/S 754 mmHg 50%
    21:00 -4°C° 0 mm 5 m/S 754 mmHg 50%
    22:00 -4°C° 0 mm 5 m/S 754 mmHg 51%
    23:00 -4°C° 0 mm 5 m/S 754 mmHg 51%

    übermorgen, 20 November, Dienstag

    Zeit Temperatur Niederschläge Wind Luftdruck Luftfeuchtigkeit
    00:00 -4°C° 0 mm 5 m/S 754 mmHg 53%
    01:00 -4°C° 0 mm 5 m/S 754 mmHg 55%
    02:00 -4°C° 0 mm 5 m/S 754 mmHg 57%
    03:00 -4°C° 0 mm 5 m/S 753 mmHg 58%
    04:00 -4°C° 0 mm 5 m/S 753 mmHg 60%
    05:00 -4°C° 0 mm 6 m/S 753 mmHg 62%
    06:00 -4°C° 0 mm 6 m/S 753 mmHg 64%
    07:00 -4°C° 0 mm 6 m/S 754 mmHg 65%
    08:00 -4°C° 0 mm 6 m/S 754 mmHg 67%
    09:00 -3°C° 0 mm 6 m/S 754 mmHg 66%
    10:00 -3°C° 0 mm 6 m/S 754 mmHg 65%
    11:00 -1°C° 0 mm 5 m/S 754 mmHg 64%
    12:00 -1°C° 0 mm 5 m/S 754 mmHg 65%
    13:00 -1°C° 0 mm 5 m/S 754 mmHg 66%
    14:00 -1°C° 0 mm 5 m/S 754 mmHg 67%
    15:00 -2°C° 0 mm 5 m/S 754 mmHg 73%
    16:00 -3°C° 0 mm 4 m/S 754 mmHg 79%
    17:00 -4°C° 0 mm 4 m/S 754 mmHg 85%
    18:00 -4°C° 0 mm 4 m/S 754 mmHg 86%
    19:00 -4°C° 0 mm 4 m/S 755 mmHg 88%
    20:00 -4°C° 0 mm 4 m/S 755 mmHg 90%
    21:00 -4°C° 0 mm 3 m/S 755 mmHg 90%
    22:00 -5°C° 0 mm 3 m/S 755 mmHg 91%
    23:00 -5°C° 0 mm 3 m/S 755 mmHg 91%

    21 November, Mittwoch

    Zeit Temperatur Niederschläge Wind Luftdruck Luftfeuchtigkeit
    00:00 -5°C° 0 mm 3 m/S 755 mmHg 92%
    01:00 -4°C° 0 mm 2 m/S 755 mmHg 92%
    02:00 -4°C° 0 mm 2 m/S 756 mmHg 92%
    03:00 -4°C° 0 mm 2 m/S 755 mmHg 92%
    04:00 -4°C° 0 mm 2 m/S 755 mmHg 92%
    05:00 -5°C° 0 mm 3 m/S 755 mmHg 92%
    06:00 -5°C° 0 mm 3 m/S 755 mmHg 91%
    07:00 -5°C° 0 mm 3 m/S 756 mmHg 91%
    08:00 -5°C° 0 mm 3 m/S 756 mmHg 90%
    09:00 -4°C° 0 mm 3 m/S 756 mmHg 84%
    10:00 -2°C° 0 mm 3 m/S 756 mmHg 78%
    11:00 -1°C° 0 mm 3 m/S 756 mmHg 71%
    12:00 -1°C° 0 mm 3 m/S 756 mmHg 70%
    13:00 0°C° 0 mm 3 m/S 756 mmHg 69%
    14:00 0°C° 0 mm 3 m/S 755 mmHg 67%
    15:00 -1°C° 0 mm 3 m/S 755 mmHg 71%
    16:00 -2°C° 0 mm 3 m/S 755 mmHg 76%
    17:00 -3°C° 0 mm 2 m/S 755 mmHg 80%
    18:00 -3°C° 0 mm 2 m/S 755 mmHg 81%
    19:00 -4°C° 0 mm 2 m/S 756 mmHg 81%
    20:00 -4°C° 0 mm 2 m/S 756 mmHg 82%
    21:00 -4°C° 0 mm 2 m/S 756 mmHg 82%
    22:00 -4°C° 0 mm 2 m/S 756 mmHg 83%
    23:00 -4°C° 0 mm 2 m/S 756 mmHg 83%

    22 November, Donnerstag

    Zeit Temperatur Niederschläge Wind Luftdruck Luftfeuchtigkeit
    00:00 -5°C° 0 mm 2 m/S 756 mmHg 84%
    01:00 -5°C° 0 mm 2 m/S 756 mmHg 84%
    02:00 -5°C° 0 mm 2 m/S 756 mmHg 85%
    03:00 -5°C° 0 mm 2 m/S 756 mmHg 86%
    04:00 -5°C° 0 mm 2 m/S 756 mmHg 88%
    05:00 -5°C° 0 mm 2 m/S 756 mmHg 89%
    06:00 -5°C° 0 mm 2 m/S 756 mmHg 90%
    07:00 -5°C° 0 mm 2 m/S 756 mmHg 91%
    08:00 -5°C° 0 mm 2 m/S 756 mmHg 91%
    09:00 -4°C° 0 mm 2 m/S 756 mmHg 86%
    10:00 -3°C° 0 mm 2 m/S 756 mmHg 81%
    11:00 -2°C° 0 mm 3 m/S 757 mmHg 76%
    12:00 -2°C° 0 mm 3 m/S 756 mmHg 75%
    13:00 -2°C° 0 mm 3 m/S 756 mmHg 74%
    14:00 -1°C° 0 mm 3 m/S 756 mmHg 73%
    15:00 -2°C° 0 mm 3 m/S 756 mmHg 78%
    16:00 -4°C° 0 mm 3 m/S 756 mmHg 83%
    17:00 -5°C° 0 mm 3 m/S 756 mmHg 88%
    18:00 -5°C° 0 mm 3 m/S 756 mmHg 88%
    19:00 -6°C° 0 mm 3 m/S 757 mmHg 89%
    20:00 -6°C° 0 mm 3 m/S 757 mmHg 89%
    21:00 -6°C° 0 mm 3 m/S 757 mmHg 90%
    22:00 -6°C° 0 mm 3 m/S 757 mmHg 90%
    23:00 -6°C° 0 mm 3 m/S 757 mmHg 91%

    23 November, Freitag

    Zeit Temperatur Niederschläge Wind Luftdruck Luftfeuchtigkeit
    00:00 -6°C° 0 mm 3 m/S 757 mmHg 92%
    01:00 -6°C° 0 mm 3 m/S 758 mmHg 93%
    02:00 -7°C° 0 mm 3 m/S 758 mmHg 94%
    03:00 -6°C° 0 mm 2 m/S 758 mmHg 95%
    04:00 -6°C° 0 mm 2 m/S 758 mmHg 95%
    05:00 -6°C° 0 mm 2 m/S 758 mmHg 96%
    06:00 -6°C° 0 mm 2 m/S 759 mmHg 95%
    07:00 -6°C° 0 mm 2 m/S 759 mmHg 95%
    08:00 -6°C° 0 mm 2 m/S 759 mmHg 95%
    09:00 -5°C° 0 mm 2 m/S 759 mmHg 90%
    10:00 -4°C° 0 mm 2 m/S 760 mmHg 84%
    11:00 -3°C° 0 mm 2 m/S 760 mmHg 79%
    12:00 -2°C° 0 mm 2 m/S 760 mmHg 77%
    13:00 0°C° 0 mm 1 m/S 760 mmHg 76%
    14:00 0°C° 0 mm 1 m/S 760 mmHg 74%
    15:00 0°C° 0 mm 1 m/S 760 mmHg 79%
    16:00 -1°C° 0 mm 1 m/S 760 mmHg 83%
    17:00 -2°C° 0 mm 1 m/S 760 mmHg 88%
    18:00 -2°C° 0 mm 1 m/S 760 mmHg 89%
    19:00 -3°C° 0 mm 0 m/S 759 mmHg 90%
    20:00 -4°C° 0 mm 0 m/S 759 mmHg 91%
    21:00 -4°C° 0 mm 0 m/S 759 mmHg 91%
    22:00 -3°C° 0 mm 1 m/S 759 mmHg 91%
    23:00 -3°C° 0 mm 1 m/S 759 mmHg 91%
    Mehr zeigen